Tracking 34717 objects as of 15-Jul-2026
HD Live streaming from Space Station
objects crossing your sky now

STARLINK-37779

Track STARLINK-37779 now!
10-day predictions
STARLINK-37779 is classified as:


NORAD ID: 69350
Int'l Code: 2026-122X
Perigee: 471.8 km
Apogee: 473.6 km
Inclination: 97.3 °
Period: 93.9 minutes
Semi major axis: 6843 km
RCS: Unknown
Launch date: June 3, 2026
Source: United States (US)
Launch site: AIR FORCE WESTERN TEST RANGE (AFWTR)
Your satellite tracking list
Your tracking list is empty




NASA's NSSDC Master Catalog

Two Line Element Set (TLE):
1 69350U 26122X   26195.63887187  .00025456  00000-0  78830-3 0  9998
2 69350  97.2841 225.2925 0001250  89.5112 270.6274 15.33439402  6409
Source of the keplerian elements: AFSPC